"Pseudo-MPEC" for ZTs0279

Created 2024 Sep 7 21:22:26 UT using Find_Orb

Click here for an explanation of pseudo-MPECs

 
 Astrometry: 
     ZTs0279* C2024 09 02.28161021 59 01.648-20 55 15.08   ~92Lb 18.39gUNEOCPI41
     ZTs0279  C2024 09 02.28195821 58 59.106-20 55 32.94   ~92Lb 18.39gUNEOCPI41
     ZTs0279  C2024 09 02.35687721 50 32.165-21 46 44.58   ~92Lb 18.10RUNEOCPI41
     ZTs0279  C2024 09 02.35722421 50 30.094-21 46 55.89   ~92Lb 18.10RUNEOCPI41

Station data:
(I41) Palomar Mountain--ZTF  (N33.357336 W116.859780)  US/California.
   Observers B. T. Bolin, Z. T. F. Collaboration. Measurers B. T. Bolin,
   Z.-Y. Lin, F. J. Masci. 1.2-m f/2.4 Schmidt.

Orbital elements:  ZTs0279
   Perigee 2024 Sep 1.64197 +/- 67.7 TT = 15:24:25 (JD 2460555.14197)
Epoch 2024 Sep  2.0 TT = JDT 2460555.5                           AutoNEOCP
q441545.008 +/- 3.26e+7             (J2000 equator)
H   27.64 G 0.15                    Peri.  152.12399 +/- 38
                                    Node   185.92529 +/- 45
e 466.7884011 +/- 0.218             Incl.  147.40741 +/- 41
From 4 observations 2024 Sept. 2 (1.8 hr); mean residual 0".59
Residuals in arcseconds: 
240902 I41  .30-  .85+    240902 I41  .42-  .61-    
240902 I41  .31+  .85-    240902 I41  .41+  .61+    

Ephemerides (geocentric):
Date (UTC) HH   RA             Dec           delta  r     elong  mag " sig PA
---- --------  ------------   ------------  ------ ------ -----  --- --------
2024 09 07 21  20 42 12.967   -27 43 10.96  .07405 1.0649 139.4 23.6  33d  80
2024 09 07 22  20 42 09.561   -27 43 24.32  .07455 1.0652 139.4 23.7  33d  80
2024 09 07 23  20 42 06.209   -27 43 37.45  .07504 1.0656 139.3 23.7  33d  80
2024 09 08 00  20 42 02.911   -27 43 50.33  .07554 1.0659 139.3 23.7  33d  80
2024 09 08 01  20 41 59.666   -27 44 02.97  .07604 1.0662 139.2 23.7  33d  80
2024 09 08 02  20 41 56.472   -27 44 15.39  .07653 1.0666 139.1 23.7  33d  80
2024 09 08 03  20 41 53.329   -27 44 27.57  .07703 1.0669 139.1 23.7  33d  80
2024 09 08 04  20 41 50.237   -27 44 39.54  .07752 1.0672 139.0 23.8  33d  80
2024 09 08 05  20 41 47.193   -27 44 51.28  .07802 1.0676 139.0 23.8  33d  80
2024 09 08 06  20 41 44.197   -27 45 02.81  .07852 1.0679 138.9 23.8  33d  80
2024 09 08 07  20 41 41.249   -27 45 14.13  .07901 1.0682 138.9 23.8  33d  80
2024 09 08 08  20 41 38.348   -27 45 25.24  .07951 1.0686 138.8 23.8  33d  80
2024 09 08 09  20 41 35.492   -27 45 36.15  .08000 1.0689 138.8 23.8  33d  80
2024 09 08 10  20 41 32.681   -27 45 46.85  .08050 1.0692 138.7 23.8  33d  80
2024 09 08 11  20 41 29.914   -27 45 57.36  .08100 1.0696 138.7 23.9  33d  80
2024 09 08 12  20 41 27.191   -27 46 07.68  .08149 1.0699 138.6 23.9  33d  80
2024 09 08 13  20 41 24.511   -27 46 17.80  .08199 1.0703 138.6 23.9  33d  80
2024 09 08 14  20 41 21.872   -27 46 27.74  .08248 1.0706 138.5 23.9  33d  80
2024 09 08 15  20 41 19.275   -27 46 37.50  .08298 1.0709 138.5 23.9  33d  80
2024 09 08 16  20 41 16.719   -27 46 47.07  .08348 1.0712 138.4 23.9  33d  80
2024 09 08 17  20 41 14.202   -27 46 56.46  .08397 1.0716 138.4 24.0  34d  80
2024 09 08 18  20 41 11.725   -27 47 05.68  .08447 1.0719 138.4 24.0  34d  80
2024 09 08 19  20 41 09.287   -27 47 14.73  .08497 1.0722 138.3 24.0  34d  80
2024 09 08 20  20 41 06.887   -27 47 23.61  .08546 1.0726 138.3 24.0  34d  80
2024 09 08 21  20 41 04.524   -27 47 32.32  .08596 1.0729 138.2 24.0  34d  80
2024 09 08 22  20 41 02.198   -27 47 40.87  .08645 1.0732 138.2 24.0  34d  80
2024 09 08 23  20 40 59.908   -27 47 49.26  .08695 1.0736 138.1 24.0  34d  80
2024 09 09 00  20 40 57.655   -27 47 57.49  .08745 1.0739 138.1 24.0  34d  80
2024 09 09 01  20 40 55.436   -27 48 05.56  .08794 1.0742 138.0 24.1  34d  80
2024 09 09 02  20 40 53.253   -27 48 13.47  .08844 1.0746 138.0 24.1  34d  80
2024 09 09 03  20 40 51.103   -27 48 21.24  .08894 1.0749 137.9 24.1  34d  80
2024 09 09 04  20 40 48.987   -27 48 28.85  .08943 1.0752 137.9 24.1  34d  80
2024 09 09 05  20 40 46.904   -27 48 36.32  .08993 1.0755 137.8 24.1  34d  80
2024 09 09 06  20 40 44.854   -27 48 43.65  .09043 1.0759 137.8 24.1  34d  80
2024 09 09 07  20 40 42.836   -27 48 50.83  .09092 1.0762 137.7 24.1  34d  80
2024 09 09 08  20 40 40.850   -27 48 57.87  .09142 1.0765 137.7 24.2  34d  80
2024 09 09 09  20 40 38.895   -27 49 04.77  .09192 1.0769 137.6 24.2  34d  80
2024 09 09 10  20 40 36.971   -27 49 11.54  .09241 1.0772 137.6 24.2  34d  80
2024 09 09 11  20 40 35.077   -27 49 18.17  .09291 1.0775 137.5 24.2  34d  80
2024 09 09 12  20 40 33.213   -27 49 24.67  .09341 1.0778 137.5 24.2  34d  80
2024 09 09 13  20 40 31.379   -27 49 31.03  .09390 1.0782 137.5 24.2  34d  80
2024 09 09 14  20 40 29.574   -27 49 37.27  .09440 1.0785 137.4 24.2  34d  80
2024 09 09 15  20 40 27.797   -27 49 43.38  .09490 1.0788 137.4 24.2  34d  80
2024 09 09 16  20 40 26.049   -27 49 49.37  .09539 1.0791 137.3 24.3  34d  79
2024 09 09 17  20 40 24.328   -27 49 55.23  .09589 1.0795 137.3 24.3  34d  79
2024 09 09 18  20 40 22.635   -27 50 00.97  .09639 1.0798 137.2 24.3  34d  79
2024 09 09 19  20 40 20.970   -27 50 06.59  .09689 1.0801 137.2 24.3  34d  79
2024 09 09 20  20 40 19.331   -27 50 12.10  .09738 1.0804 137.1 24.3  34d  79